Time,TemperatureF,DewpointF,PressureIn,WindDirection,WindDirectionDegrees,WindSpeedMPH,WindSpeedGustMPH,Humidity,HourlyPrecipIn,Conditions,Clouds,dailyrainin,SoftwareType,DateUTC
2013-02-22 00:01:00,24.0,22.0,30.00,ENE,68,7.0,14.0,91,0.00,,,0.00,,2013-02-22 06:01:00,
2013-02-22 00:11:00,24.0,22.0,30.00,ENE,65,7.0,15.0,91,0.00,,,0.00,,2013-02-22 06:11:00,
2013-02-22 00:21:00,24.0,22.0,30.00,ENE,65,7.0,15.0,91,0.00,,,0.00,,2013-02-22 06:21:00,
2013-02-22 00:31:00,24.0,22.0,29.99,ENE,61,6.0,14.0,92,0.00,,,0.00,,2013-02-22 06:31:00,
2013-02-22 00:42:00,24.0,22.0,29.99,ENE,61,6.0,14.0,92,0.00,,,0.00,,2013-02-22 06:42:00,
2013-02-22 00:52:00,23.0,21.0,29.98,ENE,64,7.0,14.0,93,0.00,,,0.00,,2013-02-22 06:52:00,
2013-02-22 01:01:00,23.0,21.0,29.96,NE,53,9.0,18.0,93,0.00,,,0.00,,2013-02-22 07:01:00,
2013-02-22 01:11:00,23.0,21.0,29.96,ENE,58,9.0,17.0,93,0.00,,,0.00,,2013-02-22 07:11:00,
2013-02-22 01:21:00,23.0,21.0,29.96,ENE,58,9.0,17.0,93,0.00,,,0.00,,2013-02-22 07:21:00,
2013-02-22 01:31:00,23.0,21.0,29.94,NE,47,12.0,20.0,93,0.00,,,0.00,,2013-02-22 07:31:00,
2013-02-22 01:42:00,22.0,20.0,29.92,NE,46,10.0,22.0,93,0.00,,,0.00,,2013-02-22 07:42:00,
2013-02-22 01:52:00,22.0,20.0,29.92,NE,46,10.0,22.0,93,0.00,,,0.00,,2013-02-22 07:52:00,
2013-02-22 02:01:00,22.0,21.0,29.91,NE,51,10.0,19.0,94,0.00,,,0.00,,2013-02-22 08:01:00,
2013-02-22 02:11:00,22.0,21.0,29.90,NE,51,9.0,21.0,94,0.00,,,0.00,,2013-02-22 08:11:00,
2013-02-22 02:21:00,22.0,21.0,29.90,NE,51,9.0,21.0,94,0.00,,,0.00,,2013-02-22 08:21:00,
2013-02-22 02:31:00,22.0,21.0,29.91,ENE,57,6.0,15.0,94,0.00,,,0.00,,2013-02-22 08:31:00,
2013-02-22 02:41:00,22.0,21.0,29.91,ENE,57,6.0,15.0,94,0.00,,,0.00,,2013-02-22 08:41:00,
2013-02-22 02:52:00,22.0,21.0,29.91,NE,52,8.0,15.0,94,0.00,,,0.00,,2013-02-22 08:52:00,
2013-02-22 03:03:00,22.0,21.0,29.90,NE,54,6.0,16.0,94,0.00,,,0.00,,2013-02-22 09:03:00,
2013-02-22 03:11:00,22.0,21.0,29.89,ENE,57,6.0,13.0,94,0.00,,,0.00,,2013-02-22 09:11:00,
2013-02-22 03:21:00,22.0,21.0,29.89,ENE,57,6.0,13.0,94,0.00,,,0.00,,2013-02-22 09:21:00,
2013-02-22 03:32:00,22.0,21.0,29.89,ENE,62,6.0,13.0,94,0.00,,,0.00,,2013-02-22 09:32:00,
2013-02-22 03:41:00,22.0,20.0,29.88,ENE,60,5.0,17.0,93,0.00,,,0.00,,2013-02-22 09:41:00,
2013-02-22 03:52:00,22.0,20.0,29.88,ENE,60,5.0,17.0,93,0.00,,,0.00,,2013-02-22 09:52:00,
2013-02-22 04:01:00,22.0,20.0,29.88,ENE,69,5.0,14.0,93,0.00,,,0.00,,2013-02-22 10:01:00,
2013-02-22 04:11:00,22.0,20.0,29.87,NE,54,6.0,11.0,93,0.00,,,0.00,,2013-02-22 10:11:00,
2013-02-22 04:21:00,22.0,20.0,29.87,NE,54,6.0,11.0,93,0.00,,,0.00,,2013-02-22 10:21:00,
2013-02-22 04:31:00,22.0,20.0,29.86,NE,54,5.0,12.0,93,0.00,,,0.00,,2013-02-22 10:31:00,
2013-02-22 04:42:00,22.0,20.0,29.85,ENE,61,5.0,11.0,93,0.00,,,0.00,,2013-02-22 10:42:00,
2013-02-22 04:52:00,22.0,20.0,29.85,ENE,61,5.0,11.0,93,0.00,,,0.00,,2013-02-22 10:52:00,
2013-02-22 05:01:00,22.0,20.0,29.85,ENE,59,6.0,12.0,93,0.00,,,0.00,,2013-02-22 11:01:00,
2013-02-22 05:11:00,22.0,20.0,29.85,ENE,61,5.0,11.0,93,0.00,,,0.00,,2013-02-22 11:11:00,
2013-02-22 05:21:00,22.0,20.0,29.85,ENE,61,5.0,11.0,93,0.00,,,0.00,,2013-02-22 11:21:00,
2013-02-22 05:32:00,22.0,20.0,29.84,ENE,60,7.0,13.0,93,0.00,,,0.00,,2013-02-22 11:32:00,
2013-02-22 05:42:00,22.0,20.0,29.84,NE,55,5.0,13.0,93,0.00,,,0.00,,2013-02-22 11:42:00,
2013-02-22 05:52:00,22.0,20.0,29.84,NE,55,5.0,13.0,93,0.00,,,0.00,,2013-02-22 11:52:00,
2013-02-22 06:02:00,22.0,20.0,29.83,ENE,62,4.0,14.0,93,0.00,,,0.00,,2013-02-22 12:02:00,
2013-02-22 06:11:00,22.0,20.0,29.83,ENE,62,4.0,14.0,93,0.00,,,0.00,,2013-02-22 12:11:00,
2013-02-22 06:21:00,22.0,20.0,29.82,NE,49,3.0,10.0,93,0.00,,,0.00,,2013-02-22 12:21:00,
2013-02-22 06:32:00,22.0,20.0,29.82,NE,47,5.0,8.0,93,0.00,,,0.00,,2013-02-22 12:32:00,
2013-02-22 06:42:00,22.0,20.0,29.82,NE,47,5.0,8.0,93,0.00,,,0.00,,2013-02-22 12:42:00,
2013-02-22 06:52:00,22.0,20.0,29.81,NE,48,4.0,8.0,93,0.00,,,0.00,,2013-02-22 12:52:00,
2013-02-22 07:01:00,22.0,20.0,29.81,NE,50,5.0,9.0,93,0.00,,,0.00,,2013-02-22 13:01:00,
2013-02-22 07:11:00,22.0,20.0,29.81,NE,50,5.0,9.0,93,0.00,,,0.00,,2013-02-22 13:11:00,
2013-02-22 07:22:00,22.0,20.0,29.81,NE,50,5.0,8.0,93,0.00,,,0.00,,2013-02-22 13:22:00,
2013-02-22 07:32:00,22.0,20.0,29.80,NE,40,6.0,9.0,93,0.00,,,0.00,,2013-02-22 13:32:00,
2013-02-22 07:42:00,22.0,20.0,29.80,NE,35,7.0,9.0,93,0.00,,,0.00,,2013-02-22 13:42:00,
2013-02-22 07:52:00,22.0,20.0,29.80,NE,35,7.0,9.0,93,0.00,,,0.00,,2013-02-22 13:52:00,
2013-02-22 08:01:00,23.0,21.0,29.79,NE,43,5.0,9.0,93,0.00,,,0.00,,2013-02-22 14:01:00,
2013-02-22 08:11:00,23.0,22.0,29.79,NE,38,6.0,9.0,94,0.00,,,0.00,,2013-02-22 14:11:00,
2013-02-22 08:21:00,23.0,22.0,29.79,NE,38,6.0,9.0,94,0.00,,,0.00,,2013-02-22 14:21:00,
2013-02-22 08:32:00,23.0,22.0,29.79,NNE,31,5.0,8.0,94,0.00,,,0.00,,2013-02-22 14:32:00,
2013-02-22 08:42:00,23.0,22.0,29.79,NE,35,6.0,8.0,94,0.00,,,0.00,,2013-02-22 14:42:00,
2013-02-22 08:53:00,23.0,22.0,29.79,NE,35,6.0,8.0,94,0.00,,,0.00,,2013-02-22 14:53:00,
2013-02-22 09:01:00,23.0,22.0,29.79,NE,39,4.0,7.0,94,0.00,,,0.00,,2013-02-22 15:01:00,
2013-02-22 09:11:00,23.0,22.0,29.79,NNE,33,7.0,9.0,94,0.00,,,0.00,,2013-02-22 15:11:00,
2013-02-22 09:21:00,23.0,22.0,29.79,NNE,33,7.0,9.0,94,0.00,,,0.00,,2013-02-22 15:21:00,
2013-02-22 09:32:00,23.0,22.0,29.79,NNE,32,6.0,10.0,94,0.00,,,0.00,,2013-02-22 15:32:00,
2013-02-22 09:41:00,23.0,22.0,29.79,NNE,32,6.0,10.0,94,0.00,,,0.00,,2013-02-22 15:41:00,
2013-02-22 09:52:00,23.0,22.0,29.78,NNE,14,4.0,7.0,94,0.00,,,0.00,,2013-02-22 15:52:00,
2013-02-22 10:01:00,23.0,22.0,29.79,NNE,21,4.0,8.0,94,0.00,,,0.00,,2013-02-22 16:01:00,
2013-02-22 10:12:00,23.0,22.0,29.79,NNE,28,4.0,7.0,94,0.00,,,0.00,,2013-02-22 16:12:00,
2013-02-22 10:21:00,23.0,22.0,29.79,NNE,28,4.0,7.0,94,0.00,,,0.00,,2013-02-22 16:21:00,
2013-02-22 10:31:00,24.0,23.0,29.78,NNE,30,5.0,7.0,94,0.00,,,0.00,,2013-02-22 16:31:00,
2013-02-22 10:42:00,24.0,23.0,29.78,NNE,30,5.0,7.0,94,0.00,,,0.00,,2013-02-22 16:42:00,
2013-02-22 10:52:00,24.0,23.0,29.78,NNE,28,4.0,6.0,94,0.00,,,0.00,,2013-02-22 16:52:00,
2013-02-22 11:01:00,24.0,23.0,29.79,NNE,26,4.0,6.0,94,0.00,,,0.00,,2013-02-22 17:01:00,
2013-02-22 11:11:00,25.0,24.0,29.78,NNE,22,2.0,5.0,94,0.00,,,0.00,,2013-02-22 17:11:00,
2013-02-22 11:21:00,25.0,24.0,29.78,NNE,22,2.0,5.0,94,0.00,,,0.00,,2013-02-22 17:21:00,
2013-02-22 11:31:00,25.0,24.0,29.78,NNE,33,3.0,6.0,94,0.00,,,0.00,,2013-02-22 17:31:00,
2013-02-22 11:42:00,25.0,24.0,29.78,NNE,31,3.0,5.0,94,0.00,,,0.00,,2013-02-22 17:42:00,
2013-02-22 11:52:00,25.0,24.0,29.78,NNE,31,3.0,5.0,94,0.00,,,0.00,,2013-02-22 17:52:00,
2013-02-22 12:01:00,25.0,24.0,29.77,NNE,31,3.0,5.0,94,0.00,,,0.00,,2013-02-22 18:01:00,
2013-02-22 12:12:00,26.0,25.0,29.78,NE,34,3.0,6.0,94,0.00,,,0.00,,2013-02-22 18:12:00,
2013-02-22 12:22:00,26.0,25.0,29.78,NE,34,3.0,6.0,94,0.00,,,0.00,,2013-02-22 18:22:00,
2013-02-22 12:32:00,26.0,25.0,29.76,NE,34,3.0,6.0,94,0.00,,,0.00,,2013-02-22 18:32:00,
2013-02-22 12:42:00,26.0,25.0,29.76,NE,34,3.0,6.0,94,0.00,,,0.00,,2013-02-22 18:42:00,
2013-02-22 12:51:00,26.0,25.0,29.75,NNE,24,3.0,6.0,94,0.00,,,0.00,,2013-02-22 18:51:00,
2013-02-22 13:01:00,27.0,26.0,29.75,NE,36,4.0,6.0,94,0.00,,,0.00,,2013-02-22 19:01:00,
2013-02-22 13:11:00,27.0,26.0,29.74,NE,36,3.0,6.0,95,0.00,,,0.00,,2013-02-22 19:11:00,
2013-02-22 13:21:00,27.0,26.0,29.74,NE,36,3.0,6.0,95,0.00,,,0.00,,2013-02-22 19:21:00,
2013-02-22 13:31:00,28.0,27.0,29.75,NE,38,0.0,4.0,95,0.00,,,0.00,,2013-02-22 19:31:00,
2013-02-22 13:41:00,28.0,27.0,29.74,NE,38,1.0,2.0,95,0.00,,,0.00,,2013-02-22 19:41:00,
2013-02-22 13:52:00,28.0,27.0,29.74,NE,38,1.0,2.0,95,0.00,,,0.00,,2013-02-22 19:52:00,
2013-02-22 14:01:00,29.0,27.0,29.75,NE,38,1.0,2.0,94,0.00,,,0.00,,2013-02-22 20:01:00,
2013-02-22 14:11:00,29.0,27.0,29.75,NE,38,1.0,2.0,94,0.00,,,0.00,,2013-02-22 20:11:00,
2013-02-22 14:21:00,29.0,27.0,29.75,NE,38,0.0,2.0,94,0.00,,,0.00,,2013-02-22 20:21:00,
2013-02-22 14:31:00,29.0,27.0,29.75,NE,38,0.0,0.0,93,0.01,,,0.01,,2013-02-22 20:31:00,
2013-02-22 14:41:00,29.0,27.0,29.75,NE,38,0.0,0.0,93,0.01,,,0.01,,2013-02-22 20:41:00,
2013-02-22 14:52:00,28.0,26.0,29.75,NNE,13,0.0,0.0,93,0.02,,,0.02,,2013-02-22 20:52:00,
2013-02-22 15:01:00,28.0,26.0,29.76,WNW,299,0.0,0.0,92,0.02,,,0.02,,2013-02-22 21:01:00,
2013-02-22 15:11:00,28.0,26.0,29.76,WNW,299,0.0,0.0,92,0.02,,,0.02,,2013-02-22 21:11:00,
2013-02-22 15:21:00,28.0,26.0,29.76,WNW,299,0.0,0.0,92,0.02,,,0.02,,2013-02-22 21:21:00,
2013-02-22 15:32:00,28.0,26.0,29.76,WNW,299,0.0,0.0,92,0.01,,,0.02,,2013-02-22 21:32:00,
2013-02-22 15:42:00,28.0,26.0,29.76,WNW,299,0.0,0.0,92,0.00,,,0.02,,2013-02-22 21:42:00,
2013-02-22 15:51:00,28.0,26.0,29.76,WNW,299,0.0,0.0,92,0.00,,,0.02,,2013-02-22 21:51:00,
2013-02-22 16:01:00,28.0,26.0,29.75,WNW,299,0.0,0.0,92,0.01,,,0.03,,2013-02-22 22:01:00,
2013-02-22 16:11:00,28.0,26.0,29.75,WNW,299,0.0,0.0,92,0.01,,,0.03,,2013-02-22 22:11:00,
2013-02-22 16:21:00,28.0,26.0,29.75,WNW,300,0.0,0.0,91,0.01,,,0.03,,2013-02-22 22:21:00,
2013-02-22 16:31:00,28.0,25.0,29.75,WNW,300,0.0,0.0,90,0.01,,,0.03,,2013-02-22 22:31:00,
2013-02-22 16:41:00,28.0,25.0,29.75,WNW,300,0.0,0.0,90,0.01,,,0.03,,2013-02-22 22:41:00,
2013-02-22 16:52:00,28.0,25.0,29.75,WNW,300,0.0,0.0,90,0.01,,,0.03,,2013-02-22 22:52:00,
2013-02-22 17:01:00,28.0,25.0,29.76,WNW,300,0.0,0.0,90,0.00,,,0.03,,2013-02-22 23:01:00,
2013-02-22 17:11:00,28.0,25.0,29.76,WNW,300,0.0,0.0,89,0.00,,,0.03,,2013-02-22 23:11:00,
2013-02-22 17:21:00,28.0,25.0,29.76,WNW,300,0.0,0.0,89,0.00,,,0.03,,2013-02-22 23:21:00,
2013-02-22 17:31:00,28.0,25.0,29.77,WNW,300,0.0,0.0,89,0.00,,,0.03,,2013-02-22 23:31:00,
2013-02-22 17:41:00,28.0,25.0,29.77,WNW,300,0.0,0.0,89,0.00,,,0.03,,2013-02-22 23:41:00,
2013-02-22 17:52:00,28.0,25.0,29.77,WNW,300,0.0,0.0,90,0.00,,,0.03,,2013-02-22 23:52:00,
2013-02-22 18:01:00,28.0,25.0,29.77,WNW,300,0.0,0.0,90,0.00,,,0.03,,2013-02-23 00:01:00,
2013-02-22 18:11:00,27.0,24.0,29.78,WNW,300,0.0,0.0,90,0.00,,,0.03,,2013-02-23 00:11:00,
2013-02-22 18:21:00,27.0,24.0,29.78,WNW,300,0.0,0.0,90,0.00,,,0.03,,2013-02-23 00:21:00,
2013-02-22 18:32:00,27.0,24.0,29.78,WNW,300,0.0,0.0,90,0.00,,,0.03,,2013-02-23 00:32:00,
2013-02-22 18:41:00,27.0,24.0,29.78,WNW,300,0.0,0.0,90,0.00,,,0.03,,2013-02-23 00:41:00,
2013-02-22 18:52:00,27.0,24.0,29.78,WNW,300,0.0,0.0,90,0.00,,,0.03,,2013-02-23 00:52:00,
2013-02-22 19:01:00,27.0,24.0,29.78,WNW,300,0.0,0.0,90,0.00,,,0.03,,2013-02-23 01:01:00,
2013-02-22 19:11:00,27.0,24.0,29.78,WNW,300,0.0,0.0,90,0.00,,,0.03,,2013-02-23 01:11:00,
2013-02-22 19:21:00,27.0,24.0,29.78,WNW,300,0.0,0.0,90,0.00,,,0.03,,2013-02-23 01:21:00,
2013-02-22 19:31:00,27.0,24.0,29.78,WNW,300,0.0,0.0,90,0.00,,,0.03,,2013-02-23 01:31:00,
2013-02-22 19:41:00,27.0,24.0,29.78,WNW,300,0.0,0.0,90,0.00,,,0.03,,2013-02-23 01:41:00,
2013-02-22 19:51:00,27.0,24.0,29.78,WNW,300,0.0,0.0,90,0.00,,,0.03,,2013-02-23 01:51:00,
2013-02-22 20:01:00,27.0,24.0,29.78,WNW,300,0.0,0.0,90,0.00,,,0.03,,2013-02-23 02:01:00,
2013-02-22 20:11:00,27.0,24.0,29.79,WNW,300,0.0,0.0,90,0.00,,,0.03,,2013-02-23 02:11:00,
2013-02-22 20:21:00,27.0,24.0,29.79,WNW,300,0.0,0.0,90,0.00,,,0.03,,2013-02-23 02:21:00,
2013-02-22 20:31:00,27.0,24.0,29.79,WNW,300,0.0,0.0,90,0.00,,,0.03,,2013-02-23 02:31:00,
2013-02-22 20:42:00,27.0,24.0,29.79,WNW,300,0.0,0.0,90,0.00,,,0.03,,2013-02-23 02:42:00,
2013-02-22 20:52:00,27.0,24.0,29.79,SW,234,0.0,0.0,90,0.00,,,0.03,,2013-02-23 02:52:00,
2013-02-22 21:01:00,27.0,24.0,29.80,WSW,254,0.0,0.0,90,0.00,,,0.03,,2013-02-23 03:01:00,
2013-02-22 21:11:00,26.0,23.0,29.80,SW,233,0.0,0.0,90,0.00,,,0.03,,2013-02-23 03:11:00,
2013-02-22 21:21:00,26.0,23.0,29.80,SW,233,0.0,0.0,90,0.00,,,0.03,,2013-02-23 03:21:00,
2013-02-22 21:31:00,26.0,23.0,29.80,SW,233,0.0,0.0,90,0.00,,,0.03,,2013-02-23 03:31:00,
2013-02-22 21:41:00,26.0,23.0,29.80,SW,233,0.0,0.0,90,0.00,,,0.03,,2013-02-23 03:41:00,
2013-02-22 21:52:00,26.0,23.0,29.80,SW,234,0.0,0.0,90,0.00,,,0.03,,2013-02-23 03:52:00,
2013-02-22 22:01:00,26.0,23.0,29.79,SW,234,0.0,0.0,89,0.00,,,0.03,,2013-02-23 04:01:00,
2013-02-22 22:11:00,26.0,23.0,29.80,SW,234,0.0,0.0,89,0.00,,,0.03,,2013-02-23 04:11:00,
2013-02-22 22:21:00,26.0,23.0,29.80,SW,234,0.0,0.0,89,0.00,,,0.03,,2013-02-23 04:21:00,
2013-02-22 22:31:00,26.0,23.0,29.79,SW,234,0.0,0.0,88,0.00,,,0.03,,2013-02-23 04:31:00,
2013-02-22 22:41:00,26.0,23.0,29.79,SW,234,0.0,0.0,88,0.00,,,0.03,,2013-02-23 04:41:00,
2013-02-22 22:52:00,26.0,23.0,29.79,SW,234,0.0,0.0,88,0.00,,,0.03,,2013-02-23 04:52:00,
2013-02-22 23:02:00,26.0,23.0,29.80,SW,230,0.0,0.0,88,0.00,,,0.03,,2013-02-23 05:02:00,
2013-02-22 23:12:00,26.0,23.0,29.80,SW,230,0.0,0.0,88,0.00,,,0.03,,2013-02-23 05:12:00,
2013-02-22 23:22:00,26.0,23.0,29.79,SW,230,0.0,0.0,88,0.00,,,0.03,,2013-02-23 05:22:00,
2013-02-22 23:32:00,26.0,23.0,29.79,SW,231,0.0,0.0,87,0.00,,,0.03,,2013-02-23 05:32:00,
2013-02-22 23:41:00,26.0,23.0,29.79,SW,231,0.0,0.0,87,0.00,,,0.03,,2013-02-23 05:41:00,
2013-02-22 23:52:00,26.0,23.0,29.79,SW,231,0.0,0.0,87,0.00,,,0.03,,2013-02-23 05:52:00,